Terminal Aerodrome Forecast
Issued by NWS Paducah, KY

Home | Current Version | Previous Version | Text Only | Print | Product List | Glossary On
Versions: 1 2 3 4 5 6 7 8 9 10 11 12 13 14 15 16 17 18 19 20 21 22 23 24
000
FTUS43 KPAH 080605 AAA
TAFPAH
TAF AMD
KPAH 080605Z 0806/0906 19003KT P6SM VCSH SCT005 BKN050
      TEMPO 0806/0808 5SM -SHRA BR BKN005
     FM080800 VRB03KT 4SM BR BKN008
     FM081200 19004KT 1 1/2SM -SHRA BR BKN015 OVC035
      TEMPO 0812/0814 1/2SM -TSRA FG OVC009CB
     FM081430 24001KT P6SM -SHRA BKN010 OVC040
     FM082130 19006KT P6SM FEW035=

USA.gov is the U.S. government's official web portal to all federal, state and local government web resources and services.